Miscellaneous Local Product
Issued by NWS Hastings, NE

Home | Current Version | Previous Version | Text Only | Print | Product List | Glossary On
Versions: 1 2 3 4 5 6 7 8 9 10 11 12 13 14 15 16 17 18 19 20 21 22 23 24 25 26 27 28 29 30 31 32 33 34 35 36 37 38 39 40 41 42 43 44 45 46 47 48 49 50
000
AXUS43 KGID 021702
MISGRI

GID CWA HOURLY WEATHER ROUNDUP
NATIONAL WEATHER SERVICE HASTINGS NE
1200 PM CDT TUE SEP 02 2014

NOTE: "FAIR" INDICATES FEW OR NO CLOUDS BELOW 12,000 FEET WITH NO
SIGNIFICANT WEATHER AND/OR OBSTRUCTIONS TO VISIBILITY.

...SOUTH CENTRAL NEBRASKA...

CITY           SKY/WX    TMP DP  RH WIND       PRES   REMARKS
GRAND ISLAND   SUNNY     74  54  49 W7        30.03F
HASTINGS       SUNNY     72  56  57 W6        30.03F
KEARNEY        SUNNY     72  57  60 SW8       30.05S
ORD            SUNNY     70  56  61 SW10      30.01F
YORK           SUNNY     72 N/A N/A W6        30.03S
AURORA         SUNNY     71  55  56 NW6       30.03S
LEXINGTON      SUNNY     73  61  67 SW5       30.05F
HOLDREGE       SUNNY     71  59  65 CALM      30.04F
HEBRON         SUNNY     74  54  50 CALM      30.03S

...NEBRASKA PANHANDLE...

CITY           SKY/WX    TMP DP  RH WIND       PRES   REMARKS
CHADRON        SUNNY     76  47  35 SW12      29.95F
ALLIANCE       SUNNY     73  46  38 S18       30.03F
SCOTTSBLUFF    SUNNY     74  51  44 SE6       30.02F
SIDNEY         SUNNY     74  51  44 S14       30.07F

...WESTERN AND NORTH CENTRAL NEBRASKA...

CITY           SKY/WX    TMP DP  RH WIND       PRES   REMARKS
VALENTINE      SUNNY     74  52  46 SW7       29.99F
AINSWORTH      SUNNY     72  50  45 SW9       30.01S
ONEILL         SUNNY     73  54  51 SW5       30.00F
BROKEN BOW     SUNNY     73  55  53 S9        30.03F
IMPERIAL       MOSUNNY   69  59  70 S7        30.07F
NORTH PLATTE   SUNNY     71  59  65 SW9       30.05F
MCCOOK         SUNNY     76  60  57 SW7       30.05F

...EASTERN NEBRASKA...

CITY           SKY/WX    TMP DP  RH WIND       PRES   REMARKS
NORFOLK        SUNNY     71  57  61 S6        30.00F
SO SIOUX CITY  SUNNY     73  59  61 SW7       29.98F
TEKAMAH        SUNNY     72  61  68 SW5       29.99F
ALBION         SUNNY     69  57  65 S8        30.02S
OMAHA EPPLEY   MOSUNNY   73  58  59 VRB3      30.00F
OFFUTT AFB     SUNNY     74  61  63 W5        30.00S
MILLARD        SUNNY     72  58  62 NW5       30.00F
LINCOLN        SUNNY     75  56  51 N5        30.02F
NEBRASKA CITY  SUNNY     73  58  58 NE7       30.00S
BEATRICE       SUNNY     75  58  54 NW7       30.02R
FALLS CITY     SUNNY     79  59  50 NW5       30.00R

...NORTHERN KANSAS...

CITY           SKY/WX    TMP DP  RH WIND       PRES   REMARKS
GOODLAND       SUNNY     74  56  53 S12       30.09F
HILL CITY      SUNNY     78  60  53 CALM      30.04S
NORTON         SUNNY     79  54  41 SE5       30.04S
PHILLIPSBURG   SUNNY     75  57  53 CALM      30.04S
SMITH CENTER   SUNNY     73  61  64 W3        30.04S
HAYS           SUNNY     79  63  57 SE9       30.03S
RUSSELL        SUNNY     80  65  59 E8        30.01S
CONCORDIA      SUNNY     77  64  64 E3        30.02S
SALINA         SUNNY     80  67  64 VRB7      30.01S
TOPEKA         MOSUNNY   80  70  71 VRB3      30.01R



USA.gov is the U.S. government's official web portal to all federal, state and local government web resources and services.